User: anonymous   Login
Location: Unspecified
(0.0000°N, 0.0000°E)
Time: 12:49:58
(UTC+00:00)
Language:

NOAA 17 - Orbit

View from above orbital plane
View from above orbital plane
View from above satellite
View from above satellite

Ground track
Ground track

The orbit data is extracted from the following two-line orbital elements,

1 27453U 02032A   17291.63228344 -.00000011  00000-0  13383-4 0  9995
2 27453  98.4505 251.4496 0011272 193.3505 166.7378 14.24997108796346
Epoch (UTC): 18 October 2017 15:10:29
Eccentricity: 0.0011272
inclination: 98.4505°
perigee height: 800 km
apogee height: 816 km
right ascension of ascending node: 251.4496°
argument of perigee: 193.3505°
revolutions per day: 14.24997108
mean anomaly at epoch: 166.7378°
orbit number at epoch: 79634

The dashed part of the orbit path shows where the satellite is in the earth's shadow,  

DLR